Home   Weather   Kirkenes   Past weeks

Flag for Norway Past Weather in Kirkenes, Norway — Yesterday and Last 2 Weeks

Now
15 °F

Cold.


Feels Like: 10 °F
Forecast: 4 / 15 °F
Wind: 3 mph from Northwest

Location: Kirkenes Lufthavn

Current Time: Jan 24, 2017 at 12:12:47 am

Latest Report: Jan 23, 2017 at 11:00 pm


Visibility: N/A

Pressure: 29.88 "Hg

Humidity: 91%

Dew Point: 13 °F

Location of KirkenesLocation

Past Weather in Kirkenes — Graph

°F

Kirkenes Temperature Yesterday

Maximum temperature yesterday: 13 °F (at 12:00 am)
Minimum temperature yesterday: -2 °F (at 12:00 pm)
Average temperature yesterday: 2 °F

High & Low Weather Summary for the Past Weeks

 TemperatureHumidityPressure
High33 °F (Jan 11, 9:00 pm)96% (Jan 21, 6:00 am)30.09 "Hg (Jan 21, 6:00 am)
Low-2 °F (Jan 23, 12:00 pm)67% (Jan 19, 6:00 am)28.91 "Hg (Jan 11, 2:00 pm)
Average21 °F87%29.41 "Hg
* Reported Jan 9 9:00 am — Jan 23 10:00 pm, Kirkenes, Weather by CustomWeather, © 2017

Note: Actual official high and low records may vary slightly from our data, if they occured in-between our weather recording intervals... More about our weather records

Advertising

Kirkenes Weather History for the Previous 24 Hours

Scroll right to see more
 ConditionsComfort  
Time TempWeatherWind HumidityBarometerVisibility
10:00 pm
Mon, Jan 23
8 °FFrigid.5 mph89%29.87 "HgN/A
9:00 pm12 °FCold.2 mph91%29.84 "HgN/A
8:00 pm8 °FFrigid.2 mph89%29.82 "HgN/A
7:00 pm4 °FFrigid.1 mph88%29.80 "HgN/A
6:00 pm2 °FFrigid.3 mph87%29.78 "HgN/A
5:00 pm1 °FFrigid.6 mph87%29.78 "HgN/A
4:00 pm-1 °FFrigid.5 mph86%29.75 "HgN/A
3:00 pm-2 °FFrigid.5 mph86%29.74 "HgN/A
2:00 pm-1 °FFrigid.3 mph86%29.73 "HgN/A
1:00 pm-2 °FFrigid.2 mph86%29.72 "HgN/A
12:00 pm-2 °FFrigid.5 mph86%29.72 "HgN/A
11:00 am-1 °FFrigid.3 mph87%29.71 "HgN/A
10:00 am-1 °FFrigid.5 mph91%29.70 "HgN/A
9:00 am-2 °FFrigid.5 mph90%29.70 "HgN/A
8:00 am-1 °FFrigid.3 mph89%29.70 "HgN/A
7:00 am-1 °FFrigid.3 mph88%29.68 "HgN/A
6:00 am1 °FFrigid.2 mph89%29.68 "HgN/A
5:00 am2 °FFrigid.3 mph89%29.69 "HgN/A
4:00 am2 °FFrigid.3 mph88%29.68 "HgN/A
3:00 am4 °FFrigid.2 mph90%29.69 "HgN/A
2:00 am4 °FFrigid.2 mph90%29.69 "HgN/A
1:00 am5 °FFrigid.2 mph90%29.70 "HgN/A
12:00 am13 °FCold.5 mph90%29.69 "HgN/A
Weather by CustomWeather, © 2017

See weather overviewHow to use our weather pages